Location: Caracas
(10.5033°N, 66.8422°W)
Time: 04:24:04
(UTC-04:00)

Hubble Space Telescope - Visible Passes

Search period start: 24 May 2019 00:00
Search period end: 03 June 2019 00:00
Orbit: 537 x 540 km, 28.5° (Epoch: 23 May)

Date Brightness Start Highest point End Pass type
(mag) Time Alt. Az. Time Alt. Az. Time Alt. Az.
24 May 1.7 19:03:43 10° NW 19:07:34 37° NNE 19:11:23 10° E visible
24 May 2.6 20:44:55 10° W 20:47:12 26° WSW 20:47:12 26° WSW visible
25 May 2.5 20:34:43 10° W 20:37:22 24° SW 20:37:22 24° SW visible
26 May 2.7 20:24:44 10° WSW 20:27:34 19° SSW 20:27:34 19° SSW visible
27 May 3.1 20:15:04 10° WSW 20:17:08 14° SSW 20:17:48 13° SSW visible
02 Jun 1.6 05:37:17 10° SW 05:41:11 42° SSE 05:45:06 10° ENE visible
